This demonstration page uses our WeatherBlox Daily Observations layout. Learn more.

Hourly Observations for May 31, 2019

Temp ( °F °C ) Dew Point ( °F °C ) Humidity (%) Winds ( mph kmh ) Pressure ( in mb ) Visibility ( mi km ) Precip ( " mm )
12:54 am 00:54 Clear 58 14.4 55 12.8 90 90 Calm 29.92 1013 10 16.0934 0 0
1:54 am 01:54 Clear 56 13.3 53 11.7 90 90 Calm 29.93 1013 10 16.0934 0 0
2:54 am 02:54 Clear 55 12.8 52 11.1 90 90 Calm 29.93 1013 10 16.0934 0 0
3:54 am 03:54 Clear 56 13.3 53 11.7 90 90 Calm 29.94 1014 9 14.48406 0 0
4:54 am 04:54 Clear 55 12.8 52 11.1 90 90 Calm 29.95 1014 9 14.48406 0 0
5:54 am 05:54 Clear 54 12.2 51 10.6 90 90 S 3 6 29.96 1015 8 12.87472 0 0
6:54 am 06:54 Sunny with Mist and Fog 55 12.8 52 11.1 90 90 Calm 29.96 1015 5 8.0467 0 0
7:54 am 07:54 Sunny with Mist and Fog 60 15.6 56 13.3 86 86 Calm 29.97 1015 6 9.65604 0 0
8:54 am 08:54 Sunny 65 18.3 57 13.9 76 76 SW 3 6 29.97 1015 7 11.26538 0 0
9:54 am 09:54 Sunny 73 22.8 58 14.4 59 59 W 7 11 29.97 1015 9 14.48406 0 0
10:54 am 10:54 Sunny 77 25 56 13.3 48 48 WNW 10 17 29.97 1015 9 14.48406 0 0
11:54 am 11:54 Sunny 80 26.7 56 13.3 44 44 W 9 15 29.97 1015 10 16.0934 0 0
12:54 pm 12:54 Sunny 81 27.2 55 12.8 41 41 WSW 10 17 29.96 1015 9 14.48406 0 0
1:54 pm 13:54 Sunny 83 28.3 55 12.8 38 38 WSW 7 11 29.95 1014 9 14.48406 0 0
2:54 pm 14:54 Sunny 82 27.8 56 13.3 41 41 SSW 9 15 29.93 1014 9 14.48406 0 0
3:54 pm 15:54 Sunny 82 27.8 58 14.4 44 44 S 9 15 29.91 1013 9 14.48406 0 0
4:54 pm 16:54 Sunny 83 28.3 55 12.8 38 38 SSW 12 19 29.9 1013 9 14.48406 0 0
5:54 pm 17:54 Sunny 81 27.2 50 10 34 34 SW 8 13 29.89 1012 8 12.87472 0 0
6:54 pm 18:54 Sunny 80 26.7 58 14.4 47 47 S 5 7 29.87 1012 9 14.48406 0 0
7:54 pm 19:54 Sunny 78 25.6 58 14.4 50 50 SSW 5 7 29.87 1012 10 16.0934 0 0
8:54 pm 20:54 Clear 70 21.1 57 13.9 64 64 S 7 11 29.87 1011 9 14.48406 0 0
9:54 pm 21:54 Clear 68 20 57 13.9 68 68 S 5 7 29.87 1012 10 16.0934 0 0
10:54 pm 22:54 Clear 66 18.9 57 13.9 73 73 S 3 6 29.88 1012 10 16.0934 0 0
11:54 pm 23:54 Clear 67 19.4 56 13.3 68 68 S 5 7 29.88 1012 10 16.0934 0 0

Powered by AerisWeather